Guymon, OK

6:36 PM CDT on August 23, 2017 (GMT -0500)
Guymon Municipal

Weather History for KGUY - May, 2013

Change the Weather History Date:

Sunday, May 19, 2013

  Actual Average Record
Temperature  
Mean Temperature 70 °F 66 °F  
Max Temperature 83 °F 80 °F 102 °F (2004)
Min Temperature 56 °F 52 °F 37 °F (2000)
Degree Days  
Heating Degree Days 0 2  
Month to date heating degree days 97 77  
Since 1 July heating degree days 4310 4430  
Cooling Degree Days 5 3  
Month to date cooling degree days 73 41  
Year to date cooling degree days 98 56  
Growing Degree Days 21 (Base 50)    
Moisture  
Dew Point 42 °F    
Average Humidity 42    
Maximum Humidity 63    
Minimum Humidity 20    
Precipitation  
Precipitation 0.01 in 0.08 in 0.86 in (2015)
Month to date precipitation 0.14 1.22  
Year to date precipitation 2.33 5.03  
Snow  
Snow 0.00 in - - ()
Month to date snowfall 0.3  
Since 1 July snowfall 22.3  
Snow Depth 0.00 in    
Sea Level Pressure  
Sea Level Pressure 29.58 in    
Wind  
Wind Speed 10 mph (NNW)    
Max Wind Speed 26 mph    
Max Gust Speed 35 mph    
Visibility 10 miles    
Events Rain , Thunderstorm    
T = Trace of Precipitation, MM = Missing Value Source: NWS Daily Summary

Daily Weather History Graph

Daily Weather History Graph

Search for Another Location

Airport or City:

Trip Planner

Search our weather history database for the weather conditions in past years. The results will help you decide how hot, cold, wet, or windy it might be!

Date:

Astronomy

May. 19, 2013 Rise Set
Actual Time 6:35 AM CDT 8:50 PM CDT
Civil Twilight 6:06 AM CDT 9:19 PM CDT
Nautical Twilight 5:30 AM CDT 9:55 PM CDT
Astronomical Twilight 4:51 AM CDT 10:34 PM CDT
Moon 3:05 PM CDT (5/19) 2:50 AM CDT (5/19)
Length of Visible Light 15h 13m
Length of Day
14h 14m
Waxing Gibbous, 65% of the Moon is Illuminated
May 19
Waxing Gibbous
May 24
Full
May 31
Last Quarter
Jun 8
New
Jun 16
First Quarter

Hourly Weather History & Observations

Time (CDT) Temp. Dew Point Humidity Pressure Visibility Wind Dir Wind Speed Gust Speed Precip Events Conditions
12:53 AM 70.0 °F 28.0 °F 21% 29.49 in 10.0 mi West 8.1 mph - N/A   Clear
1:53 AM 68.0 °F 28.9 °F 23% 29.52 in 10.0 mi Variable 3.5 mph - N/A   Clear
2:53 AM 72.0 °F 28.9 °F 20% 29.52 in 10.0 mi WSW 3.5 mph - N/A   Partly Cloudy
3:53 AM 69.1 °F 32.0 °F 25% 29.53 in 10.0 mi NW 3.5 mph - N/A   Scattered Clouds
5:53 AM 68.0 °F 50.0 °F 52% 29.51 in 10.0 mi NNW 12.7 mph - N/A   Partly Cloudy
7:53 AM 64.9 °F 48.9 °F 56% 29.60 in 10.0 mi NW 13.8 mph - N/A   Clear
8:53 AM 66.9 °F 48.0 °F 51% 29.60 in 10.0 mi North 20.7 mph 26.5 mph N/A   Clear
9:53 AM 71.1 °F 48.0 °F 44% 29.61 in 10.0 mi NNW 20.7 mph 25.3 mph N/A   Clear
10:53 AM 73.9 °F 48.0 °F 40% 29.59 in 10.0 mi North 16.1 mph 21.9 mph N/A   Clear
11:53 AM 75.9 °F 46.9 °F 36% 29.59 in 10.0 mi North 13.8 mph 23.0 mph N/A   Clear
12:53 PM 78.1 °F 45.0 °F 31% 29.58 in 10.0 mi North 10.4 mph 17.3 mph N/A   Clear
3:11 PM 77.0 °F 42.8 °F 29% 29.70 in 10.0 mi West 3.5 mph - 0.00 in Thunderstorm Thunderstorm
3:50 PM 78.8 °F 44.6 °F 30% 29.68 in 10.0 mi Variable 3.5 mph - 0.00 in Rain Light Rain
3:53 PM 78.1 °F 44.1 °F 30% 29.55 in 10.0 mi Calm Calm - 0.00 in Rain Light Rain
4:37 PM 75.2 °F 42.8 °F 31% 29.69 in 10.0 mi SSE 6.9 mph - 0.00 in Thunderstorm Mostly Cloudy
4:53 PM 73.0 °F 42.1 °F 33% 29.55 in 10.0 mi South 9.2 mph 29.9 mph 0.00 in Rain Light Rain
5:53 PM 78.1 °F 45.0 °F 31% 29.52 in 10.0 mi ENE 8.1 mph - 0.01 in   Clear
6:53 PM 75.0 °F 43.0 °F 32% 29.55 in 10.0 mi NW 27.6 mph 34.5 mph 0.00 in Rain Light Rain
7:53 PM 78.1 °F 35.1 °F 21% 29.56 in 10.0 mi Variable 3.5 mph - 0.00 in   Partly Cloudy
8:53 PM 69.1 °F 41.0 °F 36% 29.60 in 10.0 mi North 8.1 mph - N/A   Clear
9:53 PM 69.1 °F 43.0 °F 39% 29.60 in 10.0 mi Calm Calm - N/A   Clear
11:53 PM 60.1 °F 44.1 °F 55% 29.65 in 10.0 mi NNE 8.1 mph - N/A   Clear